Location: Beadle
(51.4667°N, 109.0000°W)
Time: 05:30:50
(UTC+00:00)

Envisat - Pass Details

Date: 20 January 2022
Orbit: 764 x 765 km, 98.2° (Epoch: 25 May)

Event Time Altitude Azimuth Distance (km) Brightness Sun altitude
Rises 11:19:53 0° 22° (NNE) 3,244 6.6 -35.2°
Reaches altitude 10° 11:22:32 10° 34° (NE) 2,313 5.9 -34.8°
Maximum altitude 11:26:52 28° 93° (E) 1,424 4.9 -34.1°
Drops below altitude 10° 11:31:11 10° 151° (SSE) 2,298 5.6 -33.5°
Sets 11:33:48 0° 163° (SSE) 3,220 6.3 -33.1°
